GW3570 Weather Reports


time (UTC)temp
F
wind
direction
speed
knots
gust
knots
rain 1hr
in
rain 24hr
in
rain mn
in
humidity
%
barometer
mb
20260507092707 43 213 0.0 0.0 0.00 0.00 0.00 98 1018.8
20260507092203 43 190 0.0 0.0 0.00 0.00 0.00 98 1018.8
20260507091700 44 197 0.0 0.0 0.00 0.00 0.00 98 1018.7
20260507091156 44 171 0.0 0.0 0.00 0.00 0.00 98 1018.7
20260507090652 44 229 0.0 0.0 0.00 0.00 0.00 98 1018.4
20260507090149 44 235 0.0 0.0 0.00 0.00 0.00 98 1018.4
20260507085646 44 201 0.0 0.0 0.00 0.00 0.00 98 1018.3
20260507085143 44 239 0.0 0.0 0.00 0.00 0.00 98 1018.3
20260507084640 44 228 0.0 0.0 0.00 0.00 0.00 97 1018.6
20260507084136 43 165 0.0 0.0 0.00 0.00 0.00 97 1018.3
20260507083633 43 230 0.0 0.0 0.00 0.00 0.00 97 1018.4
20260507083130 43 224 0.0 0.0 0.00 0.00 0.00 97 1018.5
20260507082625 43 218 0.0 0.0 0.00 0.00 0.00 97 1018.5
20260507082122 43 233 0.0 0.0 0.00 0.00 0.00 97 1018.7
20260507081619 43 249 0.0 0.0 0.00 0.00 0.00 97 1018.4
20260507081115 42 235 0.0 0.0 0.00 0.00 0.00 97 1018.7
20260507080612 42 235 0.0 0.0 0.00 0.00 0.00 97 1018.7
20260507080109 42 221 0.0 0.0 0.00 0.00 0.00 97 1018.5
20260507075603 42 220 0.0 0.0 0.00 0.00 0.00 97 1018.7
20260507075100 42 255 0.0 0.0 0.00 0.00 0.00 97 1018.9
20260507074557 41 228 0.0 0.0 0.00 0.00 0.00 97 1018.9
20260507074055 41 259 0.0 0.0 0.00 0.00 0.00 97 1018.8
20260507073550 41 244 0.0 0.0 0.00 0.00 0.00 97 1018.8
20260507073047 41 227 0.0 0.0 0.00 0.00 0.00 97 1019.0
20260507072545 41 270 0.0 0.0 0.00 0.00 0.00 97 1019.2
20260507072042 41 236 0.0 0.0 0.00 0.00 0.00 97 1019.0
20260507071539 41 238 0.0 0.0 0.00 0.00 0.00 97 1019.3
20260507071036 41 241 0.0 0.0 0.00 0.00 0.00 97 1019.2
20260507070533 41 243 0.0 0.0 0.00 0.00 0.00 96 1019.3
20260507070030 41 224 0.0 0.0 0.00 0.00 0.00 96 1019.5
20260507065526 42 230 0.0 0.0 0.00 0.00 0.00 96 1019.4
20260507065023 42 235 0.0 0.0 0.00 0.00 0.00 96 1019.5
20260507064521 42 237 0.0 0.0 0.00 0.00 0.00 96 1019.6
20260507064020 42 261 0.9 0.9 0.00 0.00 0.00 96 1019.5
20260507063516 42 242 0.0 0.0 0.00 0.00 0.00 96 1019.2
20260507063014 42 272 0.0 0.0 0.00 0.00 0.00 96 1019.4
20260507062510 42 299 0.0 0.0 0.00 0.00 0.00 96 1019.2
20260507062008 42 266 0.0 0.0 0.00 0.00 0.00 96 1019.2
20260507061506 42 267 0.9 0.9 0.00 0.00 0.00 96 1019.3
20260507061003 42 278 0.9 0.9 0.00 0.00 0.00 96 1019.4
20260507060501 42 189 0.0 0.0 0.00 0.00 0.00 96 1019.5
20260507055957 42 290 0.9 0.9 0.00 0.00 0.00 95 1019.4
20260507055452 42 280 0.9 0.9 0.00 0.00 0.00 95 1019.6
20260507054949 42 224 0.0 0.9 0.00 0.00 0.00 95 1019.4
20260507054445 41 259 0.0 0.9 0.00 0.00 0.00 95 1019.4
20260507053943 42 303 0.9 0.9 0.00 0.00 0.00 95 1019.4
20260507053440 42 245 0.0 0.0 0.00 0.00 0.00 95 1019.3
20260507052938 42 192 0.0 0.0 0.00 0.00 0.00 95 1019.4
20260507052436 42 253 0.0 0.0 0.00 0.00 0.00 94 1019.5
20260507051933 42 256 0.0 0.0 0.00 0.00 0.00 94 1019.5
20260507051430 42 200 0.0 0.0 0.00 0.00 0.00 94 1019.8
20260507050927 42 218 0.0 0.0 0.00 0.00 0.00 94 1019.7
20260507050423 43 229 0.0 0.0 0.00 0.00 0.00 94 1019.6
20260507045920 43 207 0.0 0.0 0.00 0.07 0.07 94 1020.0
20260507045417 43 225 0.0 0.0 0.00 0.07 0.07 93 1019.5
20260507044914 43 253 0.0 0.0 0.00 0.07 0.07 93 1019.6
20260507044410 43 270 0.0 0.9 0.00 0.07 0.07 93 1019.3
20260507043906 43 294 0.9 1.7 0.00 0.07 0.07 92 1019.4
20260507043357 43 307 0.0 0.0 0.00 0.07 0.07 92 1019.5
20260507042853 43 282 0.0 0.0 0.00 0.07 0.07 92 1019.4
20260507042350 44 261 0.0 0.0 0.00 0.07 0.07 91 1019.2
20260507041846 44 291 0.0 0.0 0.00 0.07 0.07 91 1019.4
20260507041343 44 297 0.0 0.0 0.00 0.07 0.07 91 1019.3
20260507040840 44 234 0.0 0.0 0.00 0.07 0.07 90 1019.4
20260507040336 44 278 0.0 0.0 0.00 0.07 0.07 90 1019.4
20260507035832 44 272 0.0 0.0 0.00 0.07 0.07 90 1019.5
20260507035327 44 258 0.0 0.0 0.00 0.07 0.07 89 1019.8
20260507034825 44 261 0.0 0.0 0.00 0.07 0.07 88 1019.4
20260507034322 44 233 0.0 0.0 0.00 0.07 0.07 88 1019.5
20260507033820 44 218 0.0 0.0 0.00 0.07 0.07 87 1019.6
20260507033318 44 243 0.9 0.9 0.00 0.07 0.07 87 1019.3
20260507032814 45 293 0.9 0.9 0.00 0.07 0.07 86 1019.4
20260507032310 45 226 0.0 0.0 0.00 0.07 0.07 86 1019.4
20260507031807 45 298 0.0 0.0 0.00 0.07 0.07 84 1019.4
20260507031304 45 257 0.0 0.0 0.00 0.07 0.07 83 1019.4
20260507030800 46 253 0.0 0.0 0.00 0.07 0.07 82 1019.1
20260507030258 46 280 0.0 0.0 0.00 0.07 0.07 82 1019.2
20260507025755 46 294 0.0 0.0 0.00 0.07 0.07 81 1019.1
20260507025253 46 255 0.0 0.0 0.00 0.07 0.07 80 1019.0
20260507024750 46 245 0.0 0.0 0.00 0.07 0.07 78 1019.1
20260507024247 46 270 0.0 0.0 0.00 0.07 0.07 77 1019.2
20260507023743 46 279 0.0 0.0 0.00 0.07 0.07 75 1019.0
20260507023240 46 239 0.0 0.0 0.00 0.07 0.07 75 1018.9
20260507022737 47 241 0.0 0.0 0.00 0.07 0.07 75 1019.0
20260507022233 47 343 0.0 0.0 0.00 0.07 0.07 74 1018.8
20260507021729 47 20 0.0 0.0 0.00 0.07 0.07 73 1018.7
20260507021225 48 32 0.0 0.0 0.00 0.07 0.07 72 1018.7
20260507020724 48 84 0.0 0.0 0.00 0.07 0.07 73 1018.7
20260507020219 48 225 0.0 0.0 0.00 0.07 0.07 72 1018.7
20260507015717 49 136 0.0 0.0 0.00 0.07 0.07 69 1018.4
20260507015215 48 38 1.7 1.7 0.00 0.07 0.07 71 1018.5
20260507014711 49 332 0.9 0.9 0.00 0.07 0.07 69 1018.4
20260507014207 50 18 0.9 0.9 0.00 0.07 0.07 68 1018.3
20260507013704 50 40 0.9 0.9 0.00 0.07 0.07 68 1018.4
20260507013202 50 23 0.9 0.9 0.00 0.07 0.07 66 1018.5
20260507012659 51 55 0.9 0.9 0.00 0.07 0.07 67 1018.3
20260507012154 51 306 0.9 0.9 0.00 0.07 0.07 67 1018.1
20260507011652 52 280 0.0 0.0 0.00 0.07 0.07 66 1018.2
20260507011148 53 278 0.0 0.9 0.00 0.07 0.07 63 1018.3
20260507010643 53 254 0.0 0.9 0.00 0.07 0.07 64 1018.0
20260507010139 54 274 0.0 0.0 0.00 0.07 0.07 58 1017.6
20260507005637 55 280 0.9 0.9 0.00 0.07 0.07 57 1017.6
20260507005133 56 345 0.9 1.7 0.00 0.07 0.07 55 1017.7
20260507004630 57 290 0.9 0.9 0.00 0.07 0.07 45 1017.6
20260507004128 58 352 1.7 1.7 0.00 0.07 0.07 45 1017.7
20260507003624 58 315 0.9 0.9 0.00 0.07 0.07 45 1017.5
20260507003118 59 359 2.6 4.3 0.00 0.07 0.07 43 1017.6
20260507002615 59 313 2.6 4.3 0.00 0.07 0.07 45 1017.7
20260507002111 59 357 2.6 2.6 0.00 0.07 0.07 43 1017.5
20260507001608 59 316 2.6 2.6 0.00 0.07 0.07 43 1017.3
20260507001106 60 1 3.5 4.3 0.00 0.07 0.07 41 1017.5
20260507000602 60 320 4.3 6.1 0.00 0.07 0.07 39 1017.7
20260507000057 60 215 0.9 0.9 0.00 0.07 0.07 40 1017.2
20260506235555 60 332 1.7 1.7 0.00 0.07 0.07 41 1017.2
20260506235050 60 9 3.5 4.3 0.00 0.07 0.07 42 1017.4
20260506234548 61 351 3.5 4.3 0.00 0.07 0.07 40 1017.3
20260506234044 61 349 3.5 4.3 0.00 0.07 0.07 40 1017.1
20260506233542 61 282 6.1 7.0 0.00 0.07 0.07 41 1017.3
20260506233038 61 319 3.5 4.3 0.00 0.07 0.07 39 1017.0
20260506232534 61 260 4.3 5.2 0.00 0.07 0.07 42 1017.3
20260506232030 60 343 3.5 4.3 0.00 0.07 0.07 40 1017.4
20260506231528 60 331 1.7 2.6 0.00 0.07 0.07 44 1017.4
20260506231026 61 263 2.6 2.6 0.00 0.07 0.07 39 1017.3
20260506230522 61 1 2.6 2.6 0.00 0.07 0.07 40 1017.5
20260506230019 60 237 1.7 1.7 0.00 0.07 0.07 38 1017.5
20260506225516 61 350 5.2 7.0 0.00 0.07 0.07 43 1017.4
20260506225007 61 42 0.9 0.9 0.00 0.07 0.07 38 1017.3
20260506224504 61 288 1.7 2.6 0.00 0.07 0.07 42 1017.3
20260506224001 62 152 1.7 1.7 0.00 0.07 0.07 40 1017.5
20260506223456 62 320 4.3 6.1 0.00 0.07 0.07 38 1017.3
20260506222953 62 335 2.6 2.6 0.00 0.07 0.07 36 1017.5
20260506222450 62 286 1.7 1.7 0.00 0.07 0.07 37 1017.4
20260506221946 62 12 3.5 4.3 0.00 0.07 0.07 36 1017.3
20260506221443 63 354 6.1 7.0 0.00 0.07 0.07 36 1017.4
20260506220941 63 126 1.7 2.6 0.00 0.07 0.07 34 1017.5
20260506220436 62 322 2.6 4.3 0.00 0.07 0.07 37 1017.3
20260506215933 62 281 3.5 6.1 0.00 0.07 0.07 35 1017.2
20260506215429 62 328 2.6 4.3 0.00 0.07 0.07 35 1017.4
20260506214925 63 260 1.7 1.7 0.00 0.07 0.07 37 1017.4
20260506214422 63 359 2.6 4.3 0.00 0.07 0.07 38 1017.4
20260506213920 63 9 4.3 5.2 0.00 0.07 0.07 36 1017.1
20260506213418 63 332 3.5 4.3 0.00 0.07 0.07 39 1017.3
20260506212915 63 353 3.5 5.2 0.00 0.07 0.07 40 1017.3
20260506212411 63 4 4.3 5.2 0.00 0.07 0.07 37 1017.3
20260506211905 62 334 2.6 2.6 0.00 0.07 0.07 36 1017.1
20260506211402 63 318 2.6 5.2 0.00 0.07 0.07 38 1017.2
20260506210859 63 266 1.7 2.6 0.00 0.07 0.07 37 1017.4
20260506210356 63 42 3.5 4.3 0.00 0.07 0.07 37 1017.3
20260506205853 64 3 3.5 4.3 0.00 0.07 0.07 41 1017.3
20260506205349 63 16 6.1 7.8 0.00 0.07 0.07 41 1017.4
20260506204846 63 54 2.6 2.6 0.00 0.07 0.07 39 1017.4
20260506204343 63 258 2.6 2.6 0.00 0.07 0.07 44 1017.2
20260506203841 62 22 1.7 2.6 0.00 0.07 0.07 42 1017.4
20260506203338 63 308 4.3 7.0 0.00 0.07 0.07 42 1017.6
20260506202834 63 6 4.3 5.2 0.00 0.07 0.07 41 1017.9
20260506202332 62 299 7.0 8.7 0.00 0.07 0.07 41 1017.9
20260506201828 62 312 4.3 5.2 0.00 0.07 0.07 43 1017.8
20260506201326 62 335 4.3 5.2 0.00 0.07 0.07 46 1017.8
20260506200822 62 236 1.7 1.7 0.00 0.07 0.07 47 1017.8
20260506200318 62 280 2.6 4.3 0.00 0.07 0.07 41 1018.1
20260506195814 63 282 4.3 5.2 0.00 0.07 0.07 44 1018.1
20260506195312 62 200 1.7 4.3 0.00 0.07 0.07 40 1018.1
20260506194809 62 263 2.6 4.3 0.00 0.07 0.07 44 1018.3
20260506194305 62 326 4.3 7.8 0.00 0.07 0.07 45 1018.0
20260506193803 62 228 1.7 1.7 0.00 0.07 0.07 44 1018.5
20260506193259 61 288 3.5 5.2 0.00 0.07 0.07 44 1018.5
20260506192755 60 1 4.3 5.2 0.00 0.07 0.07 46 1018.6
20260506192253 60 47 1.7 2.6 0.00 0.07 0.07 44 1018.5
20260506191750 60 323 1.7 1.7 0.00 0.07 0.07 50 1018.8
20260506191246 62 313 4.3 5.2 0.00 0.07 0.07 51 1018.6
20260506190743 61 19 2.6 2.6 0.00 0.07 0.07 49 1018.7
20260506190240 61 284 3.5 4.3 0.00 0.07 0.07 48 1018.6
20260506185737 60 306 4.3 5.2 0.00 0.07 0.07 45 1018.8
20260506185233 60 318 4.3 6.1 0.00 0.07 0.07 44 1018.7
20260506184730 62 7 5.2 7.0 0.00 0.07 0.07 42 1018.9
20260506184228 61 11 5.2 6.1 0.00 0.07 0.07 49 1018.7
20260506183725 61 244 0.9 0.9 0.00 0.07 0.07 41 1018.9
20260506183220 60 327 7.0 8.7 0.00 0.07 0.07 44 1018.7
20260506182718 60 318 6.1 7.8 0.00 0.07 0.07 42 1019.0
20260506182215 60 199 2.6 2.6 0.00 0.07 0.07 40 1019.0
20260506181713 60 342 2.6 2.6 0.00 0.07 0.07 41 1019.3
20260506181210 60 0 6.1 7.0 0.00 0.07 0.07 44 1019.1
20260506180707 60 347 3.5 4.3 0.00 0.07 0.07 43 1019.3
20260506180202 60 357 5.2 6.1 0.00 0.07 0.07 45 1019.2
20260506175659 60 323 3.5 4.3 0.00 0.07 0.07 43 1019.0
20260506175156 60 9 4.3 6.1 0.00 0.07 0.07 46 1018.9
20260506174649 60 296 4.3 5.2 0.00 0.07 0.07 44 1019.3
20260506174145 59 347 3.5 4.3 0.00 0.07 0.07 47 1019.0
20260506173643 59 291 4.3 5.2 0.00 0.07 0.07 45 1019.0
20260506173140 59 344 4.3 5.2 0.00 0.07 0.07 46 1019.2
20260506172637 59 264 3.5 4.3 0.00 0.07 0.07 49 1018.9
20260506172133 60 279 4.3 7.0 0.00 0.07 0.07 48 1019.0
20260506171630 61 320 2.6 2.6 0.00 0.07 0.07 50 1018.7
20260506171129 59 198 1.7 2.6 0.00 0.07 0.07 48 1018.9
20260506170626 59 324 5.2 6.1 0.00 0.07 0.07 49 1019.0
20260506170123 58 343 5.2 6.1 0.00 0.07 0.07 53 1018.8
20260506165621 57 328 3.5 4.3 0.00 0.07 0.07 54 1019.1
20260506165117 57 235 2.6 2.6 0.00 0.07 0.07 58 1019.1
20260506164614 58 239 2.6 4.3 0.00 0.07 0.07 67 1018.9
20260506164112 56 176 1.7 1.7 0.00 0.07 0.07 60 1019.2
20260506163608 57 246 2.6 2.6 0.00 0.07 0.07 62 1019.0
20260506163103 57 311 2.6 4.3 0.00 0.07 0.07 62 1019.1
20260506162559 59 280 0.9 1.7 0.00 0.07 0.07 60 1018.9
20260506162051 58 158 0.0 0.0 0.00 0.07 0.07 61 1018.9
20260506161548 56 245 0.9 0.9 0.00 0.07 0.07 60 1018.9
20260506161040 55 245 2.6 2.6 0.00 0.07 0.07 62 1018.6
20260506160537 56 316 6.1 6.1 0.00 0.07 0.07 61 1018.9
20260506160034 56 329 4.3 5.2 0.00 0.07 0.07 63 1018.8
20260506155532 55 355 4.3 6.1 0.00 0.07 0.07 65 1018.8
20260506153704 55 310 2.6 4.3 0.00 0.07 0.07 62 1019.0
20260506153201 55 1 1.7 1.7 0.00 0.07 0.07 66 1019.0
20260506152658 54 212 0.0 0.0 0.00 0.07 0.07 63 1019.0
20260506152155 54 4 3.5 4.3 0.00 0.07 0.07 65 1019.0
20260506151654 54 239 1.7 1.7 0.00 0.07 0.07 70 1019.0
20260506151150 54 254 1.7 1.7 0.00 0.07 0.07 73 1019.0
20260506150647 53 271 2.6 2.6 0.00 0.07 0.07 72 1018.8
20260506150144 52 289 2.6 2.6 0.00 0.07 0.07 73 1018.8
20260506145641 52 252 0.9 1.7 0.00 0.07 0.07 76 1018.8
20260506145138 52 259 1.7 1.7 0.00 0.07 0.07 77 1018.8
20260506144636 51 257 1.7 1.7 0.00 0.07 0.07 78 1018.7
20260506144132 51 259 0.9 0.9 0.00 0.07 0.07 80 1018.6
20260506143630 51 301 1.7 1.7 0.00 0.07 0.07 81 1018.5
20260506143127 51 256 2.6 2.6 0.00 0.07 0.07 83 1018.7
20260506142626 50 307 2.6 2.6 0.00 0.07 0.07 84 1018.6
20260506142123 51 321 2.6 2.6 0.00 0.07 0.07 87 1018.4
20260506141621 51 260 0.9 0.9 0.00 0.07 0.07 85 1018.5
20260506141119 50 349 1.7 1.7 0.00 0.07 0.07 86 1018.3
20260506140616 50 298 1.7 1.7 0.00 0.07 0.07 85 1018.3
20260506140113 50 233 0.0 0.9 0.00 0.07 0.07 84 1018.3
20260506135610 50 289 1.7 1.7 0.00 0.07 0.07 85 1018.1
20260506135106 50 196 0.0 0.0 0.00 0.07 0.07 85 1017.9
20260506134603 49 214 0.0 0.0 0.00 0.07 0.07 86 1018.1
20260506134058 48 217 0.0 0.0 0.00 0.07 0.07 86 1018.1
20260506133556 48 234 0.0 0.0 0.00 0.07 0.07 88 1018.1
20260506133053 48 222 0.0 0.0 0.00 0.07 0.07 91 1017.8
20260506132550 48 224 0.0 0.0 0.00 0.07 0.07 92 1017.9
20260506132047 48 227 0.0 0.0 0.00 0.07 0.07 93 1018.2
20260506131544 47 217 0.0 0.0 0.00 0.07 0.07 94 1018.1
20260506131041 47 230 0.0 0.0 0.00 0.07 0.07 94 1017.9
20260506130538 46 201 0.0 0.0 0.00 0.07 0.07 95 1018.1
20260506130035 46 195 0.0 0.0 0.00 0.07 0.07 95 1018.1
20260506125533 46 207 0.0 0.0 0.00 0.07 0.07 95 1018.3
20260506125031 46 230 0.0 0.0 0.00 0.07 0.07 95 1018.2
20260506124529 46 260 0.0 0.0 0.00 0.07 0.07 95 1018.5
20260506124026 46 186 0.0 0.0 0.00 0.07 0.07 95 1018.3
20260506123524 45 176 0.0 0.0 0.00 0.07 0.07 94 1018.1
20260506123022 45 152 0.0 0.0 0.00 0.07 0.07 94 1018.3
20260506122518 45 166 0.0 0.9 0.00 0.07 0.07 94 1018.2
20260506122017 45 177 0.0 0.0 0.00 0.07 0.07 94 1018.1
20260506121514 45 193 0.0 0.0 0.00 0.07 0.07 94 1018.1
20260506121010 45 193 0.0 0.0 0.00 0.07 0.07 93 1018.1
20260506120508 45 193 0.0 0.0 0.00 0.07 0.07 93 1018.0
20260506120005 45 188 0.0 0.0 0.00 0.07 0.07 92 1018.1
20260506115502 45 220 0.0 0.0 0.00 0.07 0.07 92 1018.0
20260506115001 45 257 0.9 0.9 0.00 0.07 0.07 93 1018.4
20260506114458 45 281 0.9 0.9 0.00 0.07 0.07 93 1018.1
20260506113956 45 267 0.9 0.9 0.00 0.07 0.07 94 1017.8
20260506113454 45 285 0.9 1.7 0.00 0.07 0.07 94 1017.5
20260506112950 45 241 0.0 0.9 0.00 0.07 0.07 94 1017.7
20260506112448 45 342 1.7 1.7 0.00 0.07 0.07 95 1017.2
20260506111945 45 282 0.9 1.7 0.00 0.07 0.07 95 1017.5
20260506111443 45 263 0.9 0.9 0.00 0.07 0.07 95 1017.5
20260506110939 45 248 0.9 0.9 0.00 0.07 0.07 95 1017.4
20260506110438 45 248 0.9 0.9 0.00 0.07 0.07 96 1017.1
20260506105934 45 221 0.0 0.0 0.00 0.07 0.07 96 1016.9
20260506105430 45 244 0.0 0.0 0.00 0.07 0.07 96 1017.3
20260506104928 45 215 0.0 0.0 0.00 0.07 0.07 96 1017.3
20260506104426 45 221 0.0 0.0 0.00 0.07 0.07 96 1016.9
20260506103924 45 258 0.0 0.0 0.00 0.07 0.07 96 1017.4
20260506103421 45 279 0.9 0.9 0.00 0.07 0.07 96 1017.1
20260506102917 45 191 0.0 0.0 0.00 0.07 0.07 96 1016.6
20260506102416 45 219 0.0 0.0 0.00 0.07 0.07 95 1016.9
20260506101913 45 212 0.0 0.0 0.00 0.07 0.07 95 1016.5
20260506101409 45 180 0.0 0.0 0.00 0.07 0.07 95 1016.2
20260506100906 46 187 0.0 0.0 0.00 0.07 0.07 95 1016.3
20260506100404 45 197 0.0 0.0 0.00 0.07 0.07 95 1016.7
20260506095902 46 227 0.0 0.9 0.00 0.07 0.07 95 1016.5
20260506095400 46 234 0.0 0.0 0.00 0.07 0.07 95 1016.4
20260506094856 45 245 0.0 0.9 0.00 0.07 0.07 96 1016.5
20260506094355 46 316 1.7 1.7 0.00 0.07 0.07 96 1016.2
20260506093852 46 235 0.9 0.9 0.00 0.07 0.07 97 1015.8
20260506093350 46 291 2.6 4.3 0.00 0.07 0.07 97 1015.9
20260506092847 46 249 0.9 0.9 0.00 0.07 0.07 97 1015.6